World > North America > United States > Michigan

Hourly Commerce, MI Regional Weather

Feedback E-mail the Weather

Quick WX

Commerce, MI Weather Maps

°F °C°F °C
Commerce Weather Map
UTC Time: 7/7/2022, 04:07
Your Time:

Commerce, MI Regional Weather

Expires:202207070500;;876594
ASUS43 KDTX 070401
RWRMI 
MICHIGAN HOURLY REGIONAL WEATHER ROUNDUP
NATIONAL WEATHER SERVICE DETROIT/PONTIAC MI
1200 AM EDT THU JUL 07 2022

NOTE: "FAIR" INDICATES FEW OR NO CLOUDS BELOW 12,000 FEET WITH NO
SIGNIFICANT WEATHER AND/OR OBSTRUCTION TO VISIBILITY.


MIZ047>049-052>055-059>063-066>070-074>076-081>083-070500-
SOUTHEAST LOWER MICHIGAN
  
CITY           SKY/WX    TMP DP  RH WIND       PRES   REMARKS
ADRIAN         PTCLDY    68  66  93 CALM      30.04S FOG              
ALMA           CLEAR     63  58  84 NE6       30.06F                  
ANN ARBOR      CLEAR     66  61  84 CALM      30.04R                  
BAD AXE        CLEAR     57  57 100 CALM      30.07S                  
CARO           CLEAR     58  55  90 CALM      30.05F                  
DETROIT CITY   CLEAR     68  58  70 N7        30.05R                  
DETROIT        PTCLDY    68  62  81 E3        30.04R                  
FLINT          CLEAR     65  55  70 E10       30.05S                  
GROSSE ILE     PTCLDY    67  66  96 NE9G17    30.03S                  
HILLSDALE      MOCLDY    64  63  94 CALM      30.04F FOG              
HOWELL         PTCLDY    64  58  81 NE3       30.05S                  

CITY           SKY/WX    TMP DP  RH WIND       PRES   REMARKS
JACKSON        CLEAR     66  61  84 N5        30.05S                  
LAMBERTVILLE   CLEAR     66  66 100 CALM      30.02S FOG              
LANSING        PTCLDY    64  57  78 NE6       30.06S                  
LAPEER         CLEAR     61  54  78 CALM      30.06S                  
MASON          PTCLDY    64  60  87 CALM      30.06S                  
MONROE         CLEAR     67  64  87 E6        30.03R                  
MT. CLEMENS    PTCLDY    63  63  99 N6        30.02S                  
PONTIAC        PTCLDY    65  57  75 NE8       30.05S                  
PORT HOPE        N/A     62  32  32 NE12      30.06S                  
PORT HURON     PTCLDY    61  57  88 CALM      30.04S                  
TRI CITIES     CLEAR     61  57  87 NE6       30.07F                  
MIDLAND        CLEAR     59  56  88 CALM      30.07F                  
TROY           CLEAR     67  57  71 CALM      30.07S                  
SAGINAW HB     CLEAR     60  54  81 NE5       30.06F                  
$$

SKY/WX - Weather  TMP - Temperature  DP - Dew Point  RH - Humidity
WIND - Wind Direction/Speed PRES - Barometric Pressure VSB - Visibility
WCI - Wind Chill Index E13G22 Wind - East Wind 13 mph/Gusts of 22 mph

Trending Headlines

Commerce Radar Loop



Commerce Quick Facts


National Two Day Weather Forecast


E-mail the Commerce Weather Forecast

Voice your opinion or tell us about page issues...